FW6484 Weather Reports


Display with metric or nautical units.
time (UTC)temp
F
wind
direction
speed
MPH
gust
MPH
rain 1hr
in
rain 24hr
in
rain mn
in
humidity
%
barometer
mb
20260505064549 60 158 0.0 3.0 0.00 0.00 0.00 70 1015.7
20260505063046 61 0 0.0 4.0 0.00 0.00 0.00 68 1015.7
20260505061542 61 0 1.0 3.0 0.00 0.00 0.00 68 1015.6
20260505060042 61 0 1.0 4.0 0.00 0.00 0.00 68 1015.6
20260505054546 61 0 0.0 5.0 0.00 0.00 0.00 67 1015.7
20260505053040 62 0 0.0 4.0 0.00 0.00 0.00 67 1015.6
20260505051546 62 121 1.0 3.0 0.00 0.00 0.00 66 1015.7
20260505041535 64 127 0.0 5.0 0.00 0.00 0.00 58 1015.7
20260505040054 64 0 1.0 4.0 0.00 0.00 0.00 56 1015.7
20260505034544 65 0 0.0 5.0 0.00 0.00 0.00 54 1015.7
20260505033044 65 123 0.0 4.0 0.00 0.00 0.00 53 1015.6
20260505031552 65 0 0.0 4.0 0.00 0.00 0.00 53 1015.6
20260505030054 65 0 1.0 4.0 0.00 0.00 0.00 53 1015.6
20260505024550 65 0 0.0 4.0 0.00 0.00 0.00 53 1015.7
20260505023047 65 105 0.0 3.0 0.00 0.00 0.00 54 1015.5
20260505021550 64 0 0.0 2.0 0.00 0.00 0.00 55 1015.4
20260505020042 63 0 0.0 3.0 0.00 0.00 0.00 60 1015.3
20260505014559 62 0 0.0 2.0 0.00 0.00 0.00 63 1015.3
20260505013047 62 0 0.0 0.0 0.00 0.00 0.00 60 1015.1
20260505011550 63 0 0.0 0.0 0.00 0.00 0.00 59 1014.9
20260505010045 64 0 0.0 0.0 0.00 0.00 0.00 56 1014.7
20260505004551 66 0 0.0 0.0 0.00 0.00 0.00 53 1014.5
20260505003047 68 0 0.0 0.0 0.00 0.00 0.00 51 1014.2
20260505001547 70 0 0.0 0.0 0.00 0.00 0.00 48 1014.3
20260505000055 71 0 0.0 1.0 0.00 0.00 0.00 45 1014.1
20260504234544 72 0 0.0 2.0 0.00 0.00 0.00 44 1014.1
20260504233043 73 0 0.0 4.0 0.00 0.00 0.00 43 1013.9
20260504231541 74 0 0.0 4.0 0.00 0.00 0.00 41 1014.0
20260504230046 75 0 0.0 2.0 0.00 0.00 0.00 43 1013.9
20260504224547 75 0 0.0 4.0 0.00 0.00 0.00 39 1014.0
20260504223043 75 146 0.0 5.0 0.00 0.00 0.00 39 1013.9
20260504221543 76 44 1.0 5.0 0.00 0.00 0.00 39 1013.9
20260504220042 76 9 0.0 4.0 0.00 0.00 0.00 39 1014.0
20260504214554 76 179 1.0 5.0 0.00 0.00 0.00 41 1014.0
20260504213039 76 52 2.0 7.0 0.00 0.00 0.00 39 1014.0
20260504211546 76 11 2.0 5.0 0.00 0.00 0.00 38 1014.0
20260504210055 77 202 2.0 6.0 0.00 0.00 0.00 38 1014.1
20260504204606 77 187 1.0 6.0 0.00 0.00 0.00 37 1014.1
20260504203115 78 173 1.0 6.0 0.00 0.00 0.00 37 1014.2
20260504201549 77 176 1.0 7.0 0.00 0.00 0.00 38 1014.3
20260504200047 78 0 1.0 5.0 0.00 0.00 0.00 35 1014.4
20260504194544 77 40 1.0 8.0 0.00 0.00 0.00 36 1014.6
20260504193041 78 162 1.0 5.0 0.00 0.00 0.00 35 1014.8
20260504191552 77 180 1.0 7.0 0.00 0.00 0.00 36 1015.2
20260504190119 76 105 1.0 6.0 0.00 0.00 0.00 37 1015.4
20260504184548 76 144 2.0 7.0 0.00 0.00 0.00 38 1015.3
20260504183051 75 167 1.0 6.0 0.00 0.00 0.00 36 1015.4
20260504181542 74 0 1.0 8.0 0.00 0.00 0.00 34 1015.7
20260504180053 74 106 1.0 5.0 0.00 0.00 0.00 37 1015.8
20260504174549 75 67 2.0 5.0 0.00 0.00 0.00 37 1015.8
20260504173059 73 0 1.0 4.0 0.00 0.00 0.00 41 1016.1
20260504171548 74 113 1.0 4.0 0.00 0.00 0.00 41 1016.3
20260504081547 42 0 0.0 1.0 0.00 0.00 0.00 88 1017.5